Weather History for Kirksville, MO

Change the Weather History Date:

Friday, January 11, 2013

  Actual Average Record
Temperature  
Mean Temperature 48 °F 26 °F  
Max Temperature 56 °F 35 °F 62 °F (2004)
Min Temperature 40 °F 17 °F -17 °F (1918)
Degree Days  
Heating Degree Days 17 39  
Month to date heating degree days 391 429  
Since 1 July heating degree days 2633 2772  
Cooling Degree Days 0 0  
Month to date cooling degree days 0 0  
Year to date cooling degree days 0 0  
Moisture  
Dew Point 46 °F    
Average Humidity 83    
Maximum Humidity 100    
Minimum Humidity 66    
Precipitation  
Precipitation 0.01 in 0.03 in 1.42 in (2011)
Month to date precipitation 0.27 0.34  
Year to date precipitation 0.27 0.34  
Sea Level Pressure  
Sea Level Pressure 29.71 in    
Wind  
Wind Speed 13 mph (SSW)    
Max Wind Speed 23 mph    
Max Gust Speed 31 mph    
Visibility 6 miles    
Events Fog    
T = Trace of Precipitation, MM = Missing Value Source: NWS Daily Summary

Daily Weather History Graph

Daily Weather History Graph

Search for Another Location

Airport:

Trip Planner

Search our weather history database for the weather conditions in past years. The results will help you decide how hot, cold, wet, or windy it might be!

Date:

Astronomy

Jan. 11, 2013 Rise Set
Actual Time 7:31 AM CST 5:05 PM CST
Civil Twilight 7:01 AM CST 5:35 PM CST
Nautical Twilight 6:28 AM CST 6:08 PM CST
Astronomical Twilight 5:55 AM CST 6:41 PM CST
Moon 7:05 AM CST (1/11) 5:23 PM CST (1/11)
Length of Visible Light 10h 33m
Length of Day
9h 33m
Waning Crescent, 0% of the Moon is Illuminated
Jan 11
Waning Crescent
Jan 11
New
Jan 18
First Quarter
Jan 26
Full
Feb 3
Last Quarter

Hourly Weather History & Observations

Time (CST) Temp. Windchill Dew Point Humidity Pressure Visibility Wind Dir Wind Speed Gust Speed Precip Events Conditions
12:55 AM 43.0 °F 37.2 °F 43.0 °F 100% 29.78 in 0.2 mi SSW 10.4 mph - N/A Fog Fog
1:55 AM 44.1 °F 40.8 °F 44.1 °F 100% 29.76 in 0.2 mi South 5.8 mph - 0.01 in Fog Fog
2:55 AM 46.0 °F 41.4 °F 46.0 °F 100% 29.78 in 0.5 mi SW 9.2 mph - N/A Fog Fog
3:08 AM 46.4 °F 41.9 °F 46.4 °F 100% 29.75 in 0.8 mi SW 9.2 mph - N/A   Mist
3:32 AM 46.4 °F 42.9 °F 46.4 °F 100% 29.74 in 0.5 mi SW 6.9 mph - N/A Fog Fog
3:55 AM 46.0 °F 42.5 °F 46.0 °F 100% 29.78 in 0.2 mi SSW 6.9 mph - N/A Fog Fog
4:55 AM 46.0 °F 43.1 °F 46.0 °F 100% 29.75 in 0.2 mi SSW 5.8 mph - N/A Fog Fog
5:15 AM 46.4 °F 42.9 °F 46.4 °F 100% 29.72 in 1.0 mi South 6.9 mph - N/A   Mist
5:55 AM 46.9 °F - 46.9 °F 100% 29.76 in 2.0 mi SW 12.7 mph 18.4 mph N/A   Overcast
6:12 AM 46.4 °F 41.5 °F 46.4 °F 100% 29.74 in 1.8 mi SSW 10.4 mph - N/A   Overcast
6:55 AM 46.4 °F 41.5 °F 46.4 °F 100% 29.74 in 3.0 mi SSW 10.4 mph - N/A   Overcast
7:55 AM 46.9 °F - 46.9 °F 100% 29.78 in 4.0 mi SSW 13.8 mph - N/A   Overcast
8:29 AM 48.2 °F - 46.4 °F 93% 29.74 in 3.0 mi SSW 12.7 mph - N/A   Overcast
8:55 AM 48.0 °F - 46.9 °F 96% 29.75 in 4.0 mi South 12.7 mph 19.6 mph N/A   Overcast
9:48 AM 48.2 °F - 46.4 °F 93% 29.72 in 5.0 mi South 11.5 mph - N/A   Overcast
9:55 AM 48.9 °F - 46.9 °F 93% 29.75 in 6.0 mi South 15.0 mph 20.7 mph N/A   Overcast
10:16 AM 50.0 °F - 48.2 °F 94% 29.72 in 7.0 mi South 11.5 mph 24.2 mph N/A   Scattered Clouds
10:55 AM 52.0 °F - 48.0 °F 86% 29.73 in 10.0 mi South 15.0 mph 26.5 mph N/A   Scattered Clouds
11:55 AM 53.6 °F - 46.4 °F 77% 29.67 in 10.0 mi South 19.6 mph 28.8 mph N/A   Partly Cloudy
12:55 PM 53.1 °F - 46.0 °F 77% 29.65 in 10.0 mi South 16.1 mph 24.2 mph N/A   Clear
1:55 PM 54.0 °F - 46.9 °F 77% 29.64 in 10.0 mi South 16.1 mph 25.3 mph N/A   Clear
2:55 PM 55.9 °F - 46.0 °F 69% 29.62 in 10.0 mi South 15.0 mph 27.6 mph N/A   Clear
3:55 PM 55.9 °F - 46.0 °F 69% 29.63 in 10.0 mi South 15.0 mph 20.7 mph N/A   Clear
4:55 PM 55.0 °F - 45.0 °F 69% 29.62 in 10.0 mi South 15.0 mph - N/A   Clear
5:55 PM 55.9 °F - 44.1 °F 64% 29.62 in 10.0 mi South 15.0 mph 24.2 mph N/A   Clear
6:55 PM 55.9 °F - 45.0 °F 67% 29.64 in 10.0 mi South 10.4 mph - N/A   Clear
7:55 PM 55.0 °F - 45.0 °F 69% 29.65 in 10.0 mi South 12.7 mph - N/A   Clear
8:55 PM 55.9 °F - 45.0 °F 67% 29.66 in 10.0 mi South 15.0 mph 25.3 mph N/A   Clear
9:55 PM 55.0 °F - 45.0 °F 69% 29.67 in 10.0 mi South 16.1 mph 24.2 mph N/A   Clear
10:55 PM 55.0 °F - 44.1 °F 67% 29.67 in 10.0 mi SSW 16.1 mph 25.3 mph N/A   Clear
11:55 PM 54.0 °F - 44.1 °F 69% 29.69 in 10.0 mi SSW 16.1 mph 24.2 mph N/A   Clear